Belgrade, MT

3:54 PM MST on January 19, 2017 (GMT -0700)
Gallatin

Weather History for KBZN - March, 2013

Change the Weather History Date:

Sunday, March 17, 2013

  Actual Average Record
Temperature  
Mean Temperature 35 °F 37 °F  
Max Temperature 45 °F 50 °F 74 °F (2007)
Min Temperature 25 °F 24 °F -20 °F (1943)
Degree Days  
Heating Degree Days 30 28  
Month to date heating degree days 526 525  
Since 1 July heating degree days 6258 6105  
Cooling Degree Days 0 0  
Month to date cooling degree days 0 0  
Year to date cooling degree days 0 0  
Moisture  
Dew Point 22 °F    
Average Humidity 67    
Maximum Humidity 92    
Minimum Humidity 41    
Precipitation  
Precipitation 0.10 in 0.03 in 0.53 in (1950)
Month to date precipitation 0.14 0.43  
Year to date precipitation 0.45 1.34  
Snow  
Snow 1.20 in 0.20 in 3.90 in (1950)
Month to date snowfall 1.4 4.0  
Since 1 July snowfall 19.3 26.3  
Snow Depth 1.00 in    
Sea Level Pressure  
Sea Level Pressure 29.68 in    
Wind  
Wind Speed 13 mph (WNW)    
Max Wind Speed 31 mph    
Max Gust Speed 39 mph    
Visibility 7 miles    
Events Fog , Snow    
T = Trace of Precipitation, MM = Missing Value Source: NWS Daily Summary

Daily Weather History Graph

Daily Weather History Graph

Search for Another Location

Airport or City:

Trip Planner

Search our weather history database for the weather conditions in past years. The results will help you decide how hot, cold, wet, or windy it might be!

Date:

Astronomy

Mar. 17, 2013 Rise Set
Actual Time 7:32 AM MDT 7:33 PM MDT
Civil Twilight 7:03 AM MDT 8:03 PM MDT
Nautical Twilight 6:28 AM MDT 8:38 PM MDT
Astronomical Twilight 5:52 AM MDT 9:13 PM MDT
Moon 10:31 AM MDT (3/17) 1:01 AM MDT (3/17)
Length of Visible Light 13h 00m
Length of Day
12h 00m
Waxing Crescent, 32% of the Moon is Illuminated
Mar 17
Waxing Crescent
Mar 19
First Quarter
Mar 27
Full
Apr 2
Last Quarter
Apr 10
New

Hourly Weather History & Observations

Time (MDT) Temp. Windchill Dew Point Humidity Pressure Visibility Wind Dir Wind Speed Gust Speed Precip Events Conditions
12:56 AM 37.9 °F 35.5 °F 26.1 °F 62% 29.57 in 10.0 mi WNW 3.5 mph - N/A   Overcast
1:56 AM 43.0 °F 37.2 °F 24.1 °F 47% 29.53 in 10.0 mi WSW 10.4 mph - N/A   Overcast
2:56 AM 39.9 °F 35.1 °F 28.0 °F 63% 29.53 in 10.0 mi WSW 6.9 mph - N/A   Overcast
3:56 AM 34.0 °F 26.0 °F 30.9 °F 89% 29.54 in 3.0 mi NE 10.4 mph - 0.01 in Snow Light Snow
4:38 AM 33.8 °F 23.2 °F 30.2 °F 87% 29.53 in 2.0 mi NNW 17.3 mph - 0.02 in Snow Light Snow
4:41 AM 33.8 °F 22.8 °F 30.2 °F 87% 29.54 in 1.2 mi NNW 18.4 mph 26.5 mph 0.02 in Snow Light Snow
4:43 AM 33.8 °F - 30.2 °F 87% 29.54 in 0.8 mi North - - 0.03 in Snow Light Snow
4:49 AM 33.8 °F 22.5 °F 30.2 °F 87% 29.54 in 0.2 mi NNW 19.6 mph 27.6 mph 0.04 in Fog , Snow Heavy Snow
4:56 AM 32.0 °F 20.8 °F 30.9 °F 96% 29.56 in 0.2 mi NNW 17.3 mph - 0.05 in Fog , Snow Heavy Snow
5:00 AM 32.0 °F 21.2 °F 30.2 °F 93% 29.55 in 0.5 mi NW 16.1 mph - 0.00 in Fog , Snow Snow
5:18 AM 32.0 °F 22.5 °F 30.2 °F 93% 29.57 in 1.0 mi NNW 12.7 mph - 0.03 in Snow Light Snow
5:22 AM 32.0 °F 23.6 °F 30.2 °F 93% 29.56 in 1.5 mi North 10.4 mph - 0.03 in Snow Light Snow
5:25 AM 32.0 °F 24.2 °F 30.2 °F 93% 29.56 in 2.0 mi North 9.2 mph - 0.03 in Snow Light Snow
5:30 AM 32.0 °F 25.6 °F 30.2 °F 93% 29.56 in 5.0 mi North 6.9 mph - 0.03 in Snow Light Snow
5:56 AM 32.0 °F 26.4 °F 28.9 °F 88% 29.57 in 10.0 mi ESE 5.8 mph - 0.03 in   Overcast
6:17 AM 30.2 °F 24.3 °F 28.4 °F 93% 29.55 in 10.0 mi SE 5.8 mph - N/A   Overcast
6:56 AM 32.0 °F 27.5 °F 28.0 °F 85% 29.57 in 10.0 mi SE 4.6 mph - N/A   Overcast
7:44 AM 30.2 °F 15.7 °F 26.6 °F 86% 29.58 in 1.5 mi NW 27.6 mph 39.1 mph 0.00 in Snow Light Snow
7:47 AM 28.4 °F 14.7 °F 24.8 °F 86% 29.57 in 0.5 mi NW 21.9 mph 39.1 mph 0.01 in Fog , Snow Snow
7:56 AM 28.0 °F 17.5 °F 23.0 °F 81% 29.61 in 1.2 mi NNW 12.7 mph - 0.01 in Snow Light Snow
7:58 AM 28.4 °F 18.5 °F 23.0 °F 80% 29.58 in 2.5 mi NNW 11.5 mph - 0.00 in Snow Light Snow
8:05 AM 28.4 °F 19.1 °F 23.0 °F 80% 29.59 in 8.0 mi NNW 10.4 mph - 0.00 in   Overcast
8:56 AM 28.9 °F 19.8 °F 17.1 °F 61% 29.67 in 10.0 mi NNW 10.4 mph - 0.00 in   Overcast
9:56 AM 30.0 °F 20.5 °F 18.0 °F 61% 29.74 in 10.0 mi WNW 11.5 mph - N/A   Overcast
10:56 AM 30.9 °F 23.5 °F 17.1 °F 57% 29.75 in 10.0 mi WSW 8.1 mph - N/A   Mostly Cloudy
11:56 AM 32.0 °F 20.1 °F 14.0 °F 48% 29.75 in 10.0 mi West 19.6 mph - N/A   Partly Cloudy
12:56 PM 34.0 °F 22.4 °F 14.0 °F 44% 29.75 in 10.0 mi NW 20.7 mph 26.5 mph N/A   Overcast
1:56 PM 32.0 °F 22.1 °F 15.1 °F 50% 29.77 in 9.0 mi West 13.8 mph 23.0 mph 0.00 in Snow Light Snow
2:56 PM 34.0 °F 21.5 °F 12.9 °F 42% 29.77 in 10.0 mi WNW 24.2 mph 29.9 mph N/A   Mostly Cloudy
3:56 PM 33.1 °F 20.6 °F 14.0 °F 46% 29.81 in 10.0 mi WNW 23.0 mph 28.8 mph N/A   Overcast
4:56 PM 34.0 °F 25.0 °F 12.9 °F 42% 29.82 in 10.0 mi West 12.7 mph - N/A   Overcast
5:56 PM 34.0 °F 24.2 °F 15.1 °F 46% 29.84 in 10.0 mi WNW 15.0 mph 24.2 mph N/A   Overcast
6:56 PM 32.0 °F 18.9 °F 12.0 °F 44% 29.88 in 10.0 mi WNW 24.2 mph 34.5 mph N/A   Scattered Clouds
7:56 PM 28.9 °F 19.8 °F 14.0 °F 54% 29.93 in 10.0 mi WNW 10.4 mph - N/A   Mostly Cloudy
8:56 PM 27.0 °F 23.0 °F 10.9 °F 51% 29.96 in 10.0 mi West 3.5 mph - N/A   Clear
9:56 PM 30.0 °F 21.1 °F 10.0 °F 43% 29.97 in 10.0 mi West 10.4 mph - N/A   Overcast
10:56 PM 28.0 °F 16.1 °F 8.1 °F 43% 29.98 in 10.0 mi West 16.1 mph - N/A   Partly Cloudy
11:56 PM 27.0 °F 16.7 °F 8.1 °F 45% 29.98 in 10.0 mi WSW 11.5 mph - N/A   Clear